Volver al catálogo

SL-8 R/B

ActivoPO
NORAD 11586·ROCKET BODY·🇷🇺 Russia

Lanzado Oct 16, 1979 desde Plesetsk Cosmodrome

Loading…

Próximos Pases (próximas 24 horas)

TLE

ActualizadoSource: Space-Track

Época: Sep 14, 2026, 18:48 UTC

1 11586U 79090B   26257.78356679 -.00000012  00000-0 -26493-4 0  9992
2 11586  82.9398  74.9658 0028351  92.0907 268.3499 13.79327508339884

Sigue SL-8 R/B en tiempo real con AllMySat

Download on the App Store